Location: Gleizolles
(44.4833°N, 6.7667°E)
Time: 14:32:41
(UTC+00:00)

deb Explorer IX - Pass Details

Date: 04 July 2024
Orbit: 510 x 878 km, 38.7° (Epoch: 21 July)

Event Time Altitude Azimuth Distance (km) Brightness Sun altitude
Rises 08:14:08 0° 261° (W) 2,665 ? 43.4°
Reaches altitude 10° 08:18:36 10° 214° (SW) 1,847 ? 44.2°
Maximum altitude 08:18:59 10° 209° (SSW) 1,848 ? 44.2°
Drops below altitude 10° 08:19:22 10° 204° (SSW) 1,862 ? 44.3°
Sets 08:24:08 0° 159° (SSE) 2,873 ? 45.1°
